Waarnemingen

Advertentie
Mijn weer
Toledo, Spanje (8272): temperatuur & dauwpunt: 07.12.2019 15:00:00 - 13.12.2019 15:00:00 (CET)Toledo, Spanje (8272): windsnelheid: 07.12.2019 15:00:00 - 13.12.2019 15:00:00 (CET)Toledo, Spanje (8272): windrichting: 07.12.2019 15:00:00 - 13.12.2019 15:00:00 (CET)Toledo, Spanje (8272): luchtdruk: 07.12.2019 15:00:00 - 13.12.2019 15:00:00 (CET)Toledo, Spanje (8272): zicht: 07.12.2019 15:00:00 - 13.12.2019 15:00:00 (CET)Toledo, Spanje (8272): neerslag: 07.12.2019 15:00:00 - 13.12.2019 15:00:00 (CET)
Datum & Tijd tt [°C] td [°C] ff [km/u] ff [kn] dd ppp [hPa] vv [km] rr [mm]
13.12.2019 15:00:00 15,3 8,8 35 19 W 1016,1 20 0,0
13.12.2019 14:00:00 15,8 8,3 41 22 W 1015,7 20 0,0
13.12.2019 13:00:00 15,3 8,5 42 23 W 1016,4 20 -
13.12.2019 12:00:00 14,3 8,7 37 20 W 1017,1 20 0,0
13.12.2019 11:00:00 13,2 8,5 39 21 W - 20 0,0
13.12.2019 10:00:00 12,3 8,0 29 16 W 1016,5 20 -
13.12.2019 09:00:00 11,9 7,8 31 17 W 1015,6 20 0,0
13.12.2019 08:00:00 12,1 8,6 35 19 W 1014,7 20 0,0
13.12.2019 07:00:00 12,3 9,1 37 20 W 1014,2 20 -
13.12.2019 06:00:00 12,5 9,7 34 18 W 1014,0 20 0,0
13.12.2019 05:00:00 12,6 9,8 31 17 WNW 1013,7 20 0,0
13.12.2019 04:00:00 13,0 10,0 34 18 W 1013,7 20 -
13.12.2019 03:00:00 13,3 9,9 35 19 W 1013,6 20 0,0
13.12.2019 02:00:00 13,1 9,7 35 19 W 1013,4 20 0,0
13.12.2019 01:00:00 12,9 9,5 26 14 W 1013,9 20 -
13.12.2019 00:00:00 12,6 9,2 22 12 W 1014,6 20 0,0
12.12.2019 23:00:00 12,2 8,8 26 14 W 1014,8 20 0,0
12.12.2019 22:00:00 11,6 8,4 22 12 W 1014,8 20 -
12.12.2019 21:00:00 11,3 8,0 24 13 W 1015,6 20 0,0
12.12.2019 20:00:00 11,1 7,6 35 19 W 1015,4 20 0,0
12.12.2019 19:00:00 10,8 6,9 31 17 W 1016,1 20 -
12.12.2019 18:00:00 10,6 6,7 34 18 W 1016,5 20 0,0
12.12.2019 17:00:00 10,4 6,7 34 18 W 1017,1 20 0,0
12.12.2019 16:00:00 10,0 5,8 26 14 W 1018,0 20 -
12.12.2019 15:00:00 9,9 5,9 31 17 W 1018,7 20 0,0
12.12.2019 14:00:00 9,8 6,0 28 15 W 1019,7 20 0,0
12.12.2019 13:00:00 9,1 5,8 18 10 W 1021,3 20 -
12.12.2019 12:00:00 8,0 5,3 21 11 W 1022,8 20 0,0
12.12.2019 11:00:00 7,5 4,4 26 14 W 1024,0 20 0,0
12.12.2019 10:00:00 7,0 4,0 15 8 W 1023,8 20 -
12.12.2019 09:00:00 5,4 3,1 9 5 W 1023,7 20 0,0
12.12.2019 08:00:00 3,2 1,9 4 2 W 1024,0 20 0,0
12.12.2019 07:00:00 2,8 1,5 4 2 WNW 1025,2 20 -
12.12.2019 06:00:00 3,3 1,3 2 1 NO 1025,3 20 0,0
12.12.2019 05:00:00 2,9 2,0 4 2 NO 1025,5 17 0,0
12.12.2019 04:00:00 4,2 1,9 2 1 Z 1025,8 20 -
12.12.2019 03:00:00 3,6 1,5 2 1 WNW 1026,5 20 0,0
12.12.2019 02:00:00 3,5 1,5 2 1 W 1026,9 20 0,0
12.12.2019 01:00:00 4,2 2,4 2 1 WZW 1026,9 20 -
12.12.2019 00:00:00 4,6 3,1 2 1 N 1027,0 20 0,0
11.12.2019 23:00:00 4,4 2,9 0 0 N 1027,2 20 0,0
11.12.2019 22:00:00 5,5 2,3 4 2 NW 1027,6 20 -
11.12.2019 21:00:00 5,3 4,1 5 3 ZW 1027,8 12 0,0
11.12.2019 20:00:00 6,9 5,8 8 4 N 1027,0 19 0,0
11.12.2019 19:00:00 7,4 6,3 4 2 N 1026,3 20 -
11.12.2019 18:00:00 8,7 6,8 8 4 NW 1025,4 20 0,0
11.12.2019 17:00:00 10,4 7,1 11 6 WNW 1024,5 20 0,0
11.12.2019 16:00:00 10,1 7,3 9 5 W 1024,1 20 -
11.12.2019 15:00:00 8,6 7,4 18 10 W 1024,0 19 0,0
11.12.2019 14:00:00 7,6 7,0 15 8 W 1024,1 13 0,0
11.12.2019 13:00:00 6,4 6,4 13 7 W 1025,0 10 -
11.12.2019 12:00:00 5,4 5,4 11 6 W 1025,7 7 0,0
11.12.2019 11:00:00 4,9 4,9 13 7 W 1026,1 7 0,0
11.12.2019 10:00:00 3,6 3,6 4 2 WNW 1025,6 0,3 -
11.12.2019 09:00:00 2,8 2,8 5 3 ZZW 1025,8 0,2 0,0
11.12.2019 08:00:00 2,4 2,4 4 2 WZW 1025,7 0,2 0,0
11.12.2019 07:00:00 2,5 2,5 8 4 W 1025,6 0,2 -
11.12.2019 06:00:00 2,7 2,7 5 3 NW 1025,8 0,1 0,0
11.12.2019 05:00:00 2,5 2,5 4 2 ZZO 1026,0 0,2 0,0
11.12.2019 04:00:00 2,1 2,1 4 2 NNO 1026,8 0,2 -
11.12.2019 03:00:00 0,8 0,8 2 1 ZO 1027,6 0,1 0,0
11.12.2019 02:00:00 0,9 0,8 5 3 ZZW 1027,7 0,1 0,0
11.12.2019 01:00:00 2,4 2,4 4 2 N 1027,5 2,6 -
11.12.2019 00:00:00 3,7 3,7 4 2 N 1027,7 3,7 0,0
10.12.2019 23:00:00 4,0 4,0 4 2 NW 1028,0 4,8 0,0
10.12.2019 22:00:00 4,6 4,5 4 2 N 1027,9 4,7 -
10.12.2019 21:00:00 4,9 4,5 2 1 Z 1028,0 5 0,0
10.12.2019 20:00:00 5,1 4,7 4 2 N 1028,0 6 0,0
10.12.2019 19:00:00 5,8 4,8 0 0 N 1027,9 8 -
10.12.2019 18:00:00 7,3 5,3 5 3 WNW 1028,0 12 0,0
10.12.2019 17:00:00 9,6 5,8 9 5 WZW 1027,4 14 0,0
10.12.2019 16:00:00 11,1 5,6 4 2 WZW 1027,5 18 -
10.12.2019 15:00:00 8,8 5,2 5 3 OZO 1028,6 14 0,0
10.12.2019 14:00:00 5,8 4,4 11 6 OZO 1030,0 8 0,0
10.12.2019 13:00:00 4,9 4,0 8 4 OZO 1031,2 8 -
10.12.2019 12:00:00 4,6 4,5 4 2 ZO 1031,8 6 0,0
10.12.2019 11:00:00 3,6 3,6 4 2 NO 1032,7 0,3 0,0
10.12.2019 10:00:00 3,2 3,2 9 5 OZO 1032,3 0,3 -
10.12.2019 09:00:00 3,7 3,7 8 4 OZO 1032,1 0,2 0,0
10.12.2019 08:00:00 4,0 4,0 5 3 OZO 1032,1 0,3 0,0
10.12.2019 07:00:00 4,3 4,3 4 2 ZZW 1032,0 1,6 -
10.12.2019 06:00:00 4,9 4,9 5 3 OZO 1032,1 1,3 0,0
10.12.2019 05:00:00 4,9 4,9 9 5 ZO 1031,4 5 0,0
10.12.2019 04:00:00 4,8 4,4 9 5 Z 1032,3 8 -
10.12.2019 03:00:00 6,0 5,4 5 3 Z 1032,2 10 0,0
10.12.2019 02:00:00 7,0 6,4 5 3 ZZW 1031,8 13 0,0
10.12.2019 01:00:00 7,3 6,7 5 3 O 1032,2 18 -
10.12.2019 00:00:00 7,5 7,4 2 1 ZO 1032,0 16 0,0
09.12.2019 23:00:00 7,0 6,9 8 4 NNO 1032,0 11 0,0
09.12.2019 22:00:00 7,8 7,5 4 2 NW 1031,7 19 -
09.12.2019 21:00:00 8,5 7,9 9 5 W 1031,4 20 0,0
09.12.2019 20:00:00 8,7 8,1 11 6 W 1030,8 20 0,0
09.12.2019 19:00:00 9,1 8,3 15 8 W 1030,2 20 -
09.12.2019 18:00:00 9,1 8,6 9 5 W 1029,7 20 0,0
09.12.2019 17:00:00 9,6 8,5 13 7 W 1029,5 20 0,0
09.12.2019 16:00:00 11,2 8,8 15 8 WNW 1028,8 20 -
09.12.2019 15:00:00 10,8 8,6 15 8 W 1029,0 20 0,0
09.12.2019 14:00:00 10,0 8,3 21 11 W 1029,2 20 0,0
09.12.2019 13:00:00 11,1 8,8 15 8 W 1030,0 20 -
09.12.2019 12:00:00 10,2 8,5 11 6 W 1031,1 20 0,0
09.12.2019 11:00:00 8,8 8,3 4 2 Z 1031,5 9 0,0
09.12.2019 10:00:00 7,9 7,9 8 4 O 1031,3 3,0 -
09.12.2019 09:00:00 8,1 8,1 9 5 OZO 1030,3 6 0,0
09.12.2019 08:00:00 8,4 8,4 8 4 NO 1029,6 5 0,0
09.12.2019 07:00:00 8,3 8,3 0 0 N 1028,9 2,3 -
09.12.2019 06:00:00 8,7 8,7 4 2 NNO 1028,6 0,2 0,0
09.12.2019 05:00:00 8,7 8,7 5 3 W 1028,5 0,2 0,0
09.12.2019 04:00:00 8,7 8,7 5 3 WNW 1028,8 0,3 -
09.12.2019 03:00:00 8,8 8,8 8 4 WNW 1028,5 0,7 0,0
09.12.2019 02:00:00 8,8 8,8 15 8 W 1027,7 2,7 0,0
09.12.2019 01:00:00 8,5 8,5 13 7 WNW 1028,1 2,5 -
09.12.2019 00:00:00 8,5 8,5 8 4 W 1028,0 7 0,0
08.12.2019 23:00:00 8,1 8,0 8 4 WNW 1027,9 7 0,0
08.12.2019 22:00:00 8,1 7,8 5 3 NNW 1027,9 9 -
08.12.2019 21:00:00 7,7 7,6 8 4 W 1027,2 7 0,0
08.12.2019 20:00:00 7,8 7,5 8 4 WNW 1027,2 9 0,0
08.12.2019 19:00:00 8,0 7,9 5 3 W 1026,5 3,6 -
08.12.2019 18:00:00 8,2 7,8 5 3 NW 1026,3 9 0,6
08.12.2019 17:00:00 8,1 7,3 4 2 WZW 1026,0 8 0,0
08.12.2019 16:00:00 8,2 7,1 5 3 ZZW 1026,7 13 -
08.12.2019 15:00:00 7,5 6,6 4 2 O 1026,4 10 0,0
08.12.2019 14:00:00 6,8 6,4 8 4 ZO 1026,7 9 0,0
08.12.2019 13:00:00 6,0 5,7 8 4 Z 1027,4 8 -
08.12.2019 12:00:00 5,2 5,2 5 3 O 1028,0 0,9 0,0
08.12.2019 11:00:00 3,7 3,7 5 3 ZZO 1028,9 0,3 0,0
08.12.2019 10:00:00 2,7 2,7 8 4 O 1028,5 0,2 -
08.12.2019 09:00:00 2,4 2,4 8 4 O 1028,4 0,2 0,0
08.12.2019 08:00:00 2,4 2,4 8 4 O 1028,2 0,2 0,0
08.12.2019 07:00:00 1,4 1,4 4 2 ONO 1028,0 3,4 -
08.12.2019 06:00:00 2,4 2,4 4 2 OZO 1027,3 0,1 0,0
08.12.2019 05:00:00 2,4 2,4 5 3 OZO 1027,4 0,1 0,0
08.12.2019 04:00:00 2,6 2,6 2 1 Z 1027,6 0,1 -
08.12.2019 03:00:00 2,9 2,9 4 2 O 1027,7 0,2 0,0
08.12.2019 02:00:00 4,1 3,8 4 2 Z 1027,9 0,3 0,0
08.12.2019 01:00:00 5,5 4,9 2 1 ZZO 1027,3 4,7 -
08.12.2019 00:00:00 5,8 5,4 2 1 Z 1027,2 - 0,0
07.12.2019 23:00:00 6,0 5,7 2 1 O 1027,2 8 0,0
07.12.2019 22:00:00 6,2 5,2 4 2 ZW 1026,7 - -
07.12.2019 21:00:00 6,7 5,8 4 2 NO 1026,1 8 0,0
07.12.2019 20:00:00 8,3 6,4 4 2 ONO 1025,5 20 0,0
07.12.2019 19:00:00 8,6 6,7 2 1 Z 1025,0 17 -
07.12.2019 18:00:00 9,9 6,4 4 2 ONO 1024,5 20 0,0
07.12.2019 17:00:00 11,8 7,3 5 3 O 1023,7 20 0,0
07.12.2019 16:00:00 10,9 7,8 8 4 OZO 1023,8 14 -
07.12.2019 15:00:00 10,8 7,7 9 5 ZO 1023,7 20 0,0

tt = temperatuur
td = dauwpunt
ff = windsnelheid
dd = windrichting
ppp = luchtdruk
vv = zicht
rr = neerslag

Weerstations in de omgeving